Date String (YYYY-MM-DD hh:mm:ss) UTC,Instrument flags,Ambient pressure (hPa),Sample flow (lpm),Bypass flow (lpm),Sample temperature (°C),Ambient temperature (°C),ASC tube jacket temperature (°C),LED temperature (°C),Box temperature (°C),Sample RH (%),Span deviation,Mass concentration (μg/m³),Mass concentration (μg/m³),Mass concentration (μg/m³)
DateTimeUTC,F1_M11,P_M11,Q1_M11,Q2_M11,T1_M11,T2_M11,T3_M11,T4_M11,T5_M11,U1_M11,ZSPAN_M11,X0_M11,X2_M11,X1_M11
2022-04-29 11:00:00,,0813.7,5.01,0.00,27.8,27.1,00.0,36.9,29.5,13.6,0000.0,0022.20,0008.35,0005.48
2022-04-29 11:01:00,,0813.8,4.99,0.00,27.8,27.1,00.0,36.8,29.5,13.5,0000.0,0022.19,0008.32,0005.50
2022-04-29 11:02:00,,0813.8,5.00,0.00,27.7,27.1,00.0,36.8,29.5,13.4,0000.5,0022.02,0008.39,0005.51
2022-04-29 11:03:00,,0813.8,5.00,0.00,27.7,27.1,00.0,36.8,29.4,14.0,0001.9,0021.84,0008.38,0005.49
2022-04-29 11:04:00,,0813.7,5.00,0.00,27.7,27.0,00.0,36.8,29.4,14.3,0002.1,0021.80,0008.39,0005.48
2022-04-29 11:05:00,,0813.7,4.99,0.00,27.7,27.0,00.0,36.8,29.3,14.4,0001.9,0022.61,0008.38,0005.46
2022-04-29 11:06:00,,0814.0,5.01,0.00,27.6,27.0,00.0,36.8,29.3,14.6,0000.9,0021.72,0008.33,0005.45
2022-04-29 11:07:00,,0814.1,5.00,0.00,27.6,27.0,00.0,36.8,29.3,14.7,0000.0,0021.24,0008.25,0005.43
2022-04-29 11:08:00,,0813.7,5.00,0.00,27.6,27.0,00.0,36.8,29.3,14.7,0000.3,0021.70,0008.29,0005.43
2022-04-29 11:09:00,,0813.8,5.01,0.00,27.6,27.0,00.0,36.7,29.3,14.0,0000.0,0022.46,0008.33,0005.42
2022-04-29 11:10:00,,0813.8,4.98,0.00,27.6,26.9,00.0,36.7,29.3,14.0,0000.2,0023.04,0008.36,0005.41
2022-04-29 11:11:00,,0813.7,5.01,0.00,27.6,26.9,00.0,36.7,29.3,14.1,-000.3,0023.04,0008.35,0005.40
2022-04-29 11:12:00,,0813.7,4.98,0.00,27.5,26.8,00.0,36.7,29.3,14.6,0000.0,0023.24,0008.44,0005.39
2022-04-29 11:13:00,,0814.1,5.01,0.00,27.5,26.8,00.0,36.7,29.2,14.1,0000.4,0024.10,0008.46,0005.38
2022-04-29 11:14:00,,0813.9,4.99,0.00,27.5,26.8,00.0,36.7,29.2,14.0,0000.7,0025.21,0008.51,0005.39
2022-04-29 11:15:00,,0813.5,4.99,0.00,27.5,26.8,00.0,36.7,29.3,13.9,0000.3,0025.69,0008.56,0005.40
2022-04-29 11:16:00,,0813.5,5.02,0.00,27.5,26.9,00.0,36.6,29.3,13.5,0000.9,0024.27,0008.52,0005.41
2022-04-29 11:17:00,,0813.6,4.98,0.00,27.6,26.9,00.0,36.6,29.3,13.5,0001.4,0024.16,0008.57,0005.43
2022-04-29 11:18:00,,0813.5,4.99,0.00,27.6,26.9,00.0,36.6,29.3,13.4,0002.2,0023.94,0008.51,0005.42
2022-04-29 11:19:00,,0813.5,5.01,0.00,27.6,26.9,00.0,36.6,29.3,13.5,0003.0,0024.03,0008.50,0005.42
2022-04-29 11:20:00,,0813.5,4.99,0.00,27.5,26.9,00.0,36.6,29.3,13.6,0002.0,0023.34,0008.50,0005.42
2022-04-29 11:21:00,,0813.6,4.99,0.00,27.5,26.9,00.0,36.6,29.3,13.6,0002.7,0022.55,0008.47,0005.42
2022-04-29 11:22:00,,0813.5,5.02,0.00,27.5,26.9,00.0,36.6,29.3,13.6,0002.9,0022.27,0008.45,0005.42
2022-04-29 11:23:00,,0813.5,4.98,0.00,27.5,26.8,00.0,36.6,29.2,13.5,0003.2,0021.49,0008.41,0005.40
2022-04-29 11:24:00,,0813.4,5.02,0.00,27.5,26.8,00.0,36.6,29.2,13.5,0003.0,0020.44,0008.33,0005.39
2022-04-29 11:25:00,,0813.4,4.99,0.00,27.5,26.8,00.0,36.6,29.2,13.7,0002.4,0019.60,0008.27,0005.38
2022-04-29 11:26:00,,0813.4,5.01,0.00,27.5,26.8,00.0,36.6,29.2,13.9,0002.7,0019.11,0008.26,0005.37
2022-04-29 11:27:00,,0813.4,5.00,0.00,27.5,26.8,00.0,36.5,29.2,13.8,0003.0,0019.51,0008.23,0005.36
2022-04-29 11:28:00,,0813.4,4.99,0.00,27.5,26.8,00.0,36.5,29.2,13.6,0002.3,0021.32,0008.23,0005.35
2022-04-29 11:29:00,,0813.5,5.01,0.00,27.4,26.8,00.0,36.5,29.2,13.5,0001.8,0021.89,0008.29,0005.36
2022-04-29 11:30:00,,0813.5,4.99,0.00,27.4,26.7,00.0,36.5,29.2,13.4,0001.1,0021.51,0008.27,0005.36
2022-04-29 11:31:00,,0813.5,5.01,0.00,27.4,26.7,00.0,36.5,29.2,13.2,0002.0,0022.06,0008.25,0005.36
2022-04-29 11:32:00,,0813.5,5.00,0.00,27.4,26.7,00.0,36.5,29.2,12.9,0002.2,0022.27,0008.24,0005.36
2022-04-29 11:33:00,,0813.5,4.99,0.00,27.4,26.8,00.0,36.5,29.2,12.8,0002.1,0022.26,0008.25,0005.36
2022-04-29 11:34:00,,0813.5,5.01,0.00,27.4,26.8,00.0,36.5,29.2,12.7,0000.0,0022.27,0008.16,0005.35
2022-04-29 11:35:00,,0813.5,5.00,0.00,27.4,26.7,00.0,36.5,29.2,12.8,0000.3,0023.03,0008.18,0005.35
2022-04-29 11:36:00,,0813.5,4.99,0.00,27.4,26.7,00.0,36.5,29.2,12.8,0000.0,0023.01,0008.24,0005.35
2022-04-29 11:37:00,,0813.6,5.01,0.00,27.4,26.7,00.0,36.4,29.1,12.6,0000.0,0023.47,0008.26,0005.35
2022-04-29 11:38:00,,0813.6,4.98,0.00,27.4,26.7,00.0,36.4,29.1,12.5,0000.0,0023.66,0008.32,0005.36
2022-04-29 11:39:00,,0813.6,5.01,0.00,27.3,26.6,00.0,36.4,29.0,12.5,0000.0,0022.22,0008.38,0005.36
2022-04-29 11:40:00,,0813.6,4.98,0.00,27.3,26.5,00.0,36.4,29.0,12.5,0000.7,0021.87,0008.35,0005.37
2022-04-29 11:41:00,,0813.6,5.01,0.00,27.3,26.5,00.0,36.4,29.0,12.5,0003.9,0022.55,0008.37,0005.39
2022-04-29 11:42:00,,0813.6,4.99,0.00,27.3,26.6,00.0,36.4,29.0,12.6,0003.5,0022.05,0008.33,0005.39
2022-04-29 11:43:00,,0813.5,5.01,0.00,27.3,26.5,00.0,36.4,29.1,12.6,0003.4,0021.67,0008.32,0005.41
2022-04-29 11:44:00,,0813.5,4.99,0.00,27.3,26.5,00.0,36.4,29.0,12.6,0003.0,0021.52,0008.27,0005.42
2022-04-29 11:45:00,,0813.5,5.01,0.00,27.3,26.5,00.0,36.4,29.0,12.6,0002.8,0021.97,0008.28,0005.42
2022-04-29 11:46:00,,0813.6,4.98,0.00,27.3,26.5,00.0,36.3,29.0,12.8,0003.3,0021.28,0008.21,0005.44
2022-04-29 11:47:00,,0813.5,5.00,0.00,27.3,26.5,00.0,36.3,29.0,13.0,0003.4,0021.18,0008.22,0005.44
2022-04-29 11:48:00,,0813.5,4.99,0.00,27.2,26.6,00.0,36.3,29.0,13.0,0003.3,0020.58,0008.18,0005.46
2022-04-29 11:49:00,,0813.5,5.00,0.00,27.2,26.6,00.0,36.3,29.0,13.2,0003.1,0020.60,0008.21,0005.46
2022-04-29 11:50:00,,0813.5,5.01,0.00,27.2,26.5,00.0,36.3,28.9,13.3,0003.5,0021.39,0008.20,0005.45
2022-04-29 11:51:00,,0813.6,4.99,0.00,27.2,26.5,00.0,36.3,28.9,13.2,0003.5,0021.87,0008.20,0005.44
2022-04-29 11:52:00,,0813.6,5.01,0.00,27.2,26.4,00.0,36.3,28.9,13.5,0003.6,0021.76,0008.14,0005.41
2022-04-29 11:53:00,,0813.8,5.00,0.00,27.1,26.4,00.0,36.2,28.9,13.8,0002.7,0021.96,0008.17,0005.41
2022-04-29 11:54:00,,0814.2,5.00,0.00,27.1,26.4,00.0,36.2,28.9,13.6,0002.0,0023.20,0008.18,0005.39
2022-04-29 11:55:00,,0813.9,5.02,0.00,27.1,26.5,00.0,36.2,28.9,13.5,0001.2,0023.30,0008.22,0005.39
2022-04-29 11:56:00,,0813.8,5.01,0.00,27.1,26.5,00.0,36.2,28.9,13.6,0001.1,0022.80,0008.24,0005.38
2022-04-29 11:57:00,,0814.1,5.00,0.00,27.2,26.6,00.0,36.2,28.9,13.6,0002.0,0022.89,0008.30,0005.39
2022-04-29 11:58:00,,0813.7,5.01,0.00,27.2,26.6,00.0,36.2,29.0,13.6,0002.3,0023.53,0008.24,0005.39
2022-04-29 11:59:00,,0813.8,4.98,0.00,27.2,26.6,00.0,36.2,29.0,13.5,0002.7,0023.64,0008.20,0005.39
